#timestamp,LO_Frequency,Hit,StdDev 
1652378415.6,286046999.7,P
1652378435.4,286047002.7,N
1652378455.2,286047001.1,N
1652378475.1,286047000.5,N
1652378476.0,286047000.5,N
1652378495.8,286047003.4,N
1652378515.6,286047004.3,Y
1652378535.5,286047001.4,P
1652378555.3,286047000.2,N
1652378575.1,286047000.7,N
1652378595.9,286047000.8,N
1652378615.7,286047002.5,Y
1652378635.5,286047001.7,P
1652378655.4,286047004.4,P
1652378675.2,286047003.5,N
1652378695.0,286047004.9,Y
1652378695.9,286047004.9,P
1652378715.8,286047003.0,N
1652378735.6,286047008.4,P
1652378755.4,286047010.1,Y
1652378775.3,286047001.4,P
1652378795.1,286047003.8,N
1652378796.0,286047003.8,N
1652378815.8,286047001.3,N
1652378835.7,286047004.3,Y
1652378855.5,286047001.1,P
1652378875.3,286046999.3,N
1652378895.2,286046999.0,N
1652378915.9,286046999.0,N
1652378935.7,286047002.4,N
1652378955.6,286047000.8,N
1652378975.4,286047001.1,N
1652378995.2,286046998.7,N
1652379015.1,286047000.4,N
1652379016.0,286047000.4,N
1652379035.8,286047001.0,N
1652379055.6,286047003.6,N
1652379075.5,286047001.4,N
1652379095.3,286047002.3,N
1652379115.1,286047001.4,N
1652379135.9,286047001.3,N
1652379155.7,286047001.4,N
1652379175.5,286047003.8,N
1652379195.4,286047004.8,Y
1652379215.2,286047005.7,P
1652379235.0,286047006.3,N
1652379235.9,286047006.3,N
1652379255.8,286047007.6,Y
1652379275.6,286047002.2,P
1652379295.4,286047002.8,N
1652379315.3,286047002.1,N
1652379335.1,286047000.5,N
1652379336.0,286047000.5,N
1652379355.8,286046996.5,N
1652379375.7,286046997.4,N
1652379395.5,286046998.6,N
1652379415.3,286046998.7,N
1652379435.2,286046997.2,N
1652379455.9,286046998.9,N
1652379475.7,286046998.6,N
1652379495.6,286047001.8,N
1652379515.4,286047004.4,N
1652379535.2,286047004.6,N
1652379555.1,286047007.1,N
1652379556.0,286047007.1,N
1652379575.8,286047005.2,N
1652379595.6,286047003.2,N
1652379615.5,286047002.7,N
1652379635.3,286047002.3,N
1652379655.1,286047002.2,N
1652379675.9,286047004.2,N
1652379695.7,286047003.5,N
1652379715.5,286047005.6,N
1652379735.4,286047003.4,N
1652379755.2,286047007.1,N
1652379775.0,286047004.7,N
1652379775.9,286047004.7,N
1652379795.8,286047004.6,N
1652379815.6,286047004.8,N
1652379835.4,286047006.9,N
1652379855.3,286047005.2,N
1652379875.1,286047007.6,N
1652379876.0,286047007.6,N
1652379895.8,286047005.0,N
1652379915.7,286047006.2,N
1652379935.5,286047006.9,N
1652379955.3,286047010.0,Y
1652379975.2,286047006.3,P
1652379995.9,286047003.4,P
1652380015.7,286047006.2,P
1652380035.6,286047010.8,Y
1652380055.4,286047004.8,P
1652380075.2,286047004.1,P
1652380095.1,286047001.8,P
1652380096.0,286047001.8,N
1652380115.8,286047003.9,N
1652380135.6,286047003.1,N
1652380155.5,286047007.1,Y
1652380175.3,286047002.1,P
1652380195.1,286047002.6,P
1652380215.9,286047001.9,P
1652380235.7,286046999.7,N
1652380255.5,286047002.6,N
1652380275.4,286047000.3,N
1652380295.2,286047002.1,N
1652380315.0,286047000.6,N
1652380315.9,286047000.6,N
1652380335.8,286046998.7,N
1652380355.6,286047000.6,N
1652380375.4,286047000.5,N
1652380395.3,286047004.0,Y
1652380415.1,286047003.9,P
1652380435.8,286047005.2,P
1652380455.7,286047006.6,P
1652380475.5,286047008.4,Y
1652380495.3,286047001.3,P
1652380515.2,286047004.0,N
1652380535.0,286047001.4,N
1652380535.9,286047001.4,N
1652380555.7,286047001.8,N
1652380575.6,286047002.5,N
1652380595.4,286047003.9,Y
1652380615.2,286046998.7,P
1652380635.1,286047003.8,N
1652380636.0,286047003.8,N
1652380655.8,286047004.9,N
1652380675.6,286047006.8,Y
1652380695.5,286047006.0,P
1652380715.3,286047001.8,N
1652380735.1,286047001.7,N
1652380755.9,286047003.9,N
1652380775.7,286047003.7,N
1652380795.5,286047003.5,N
1652380815.4,286047000.7,N
1652380835.2,286047001.6,N
1652380855.0,286047005.8,Y
1652380856.0,286047005.8,P
1652380875.8,286047004.0,N
1652380895.6,286047001.0,N
1652380915.5,286047000.6,N
1652380935.3,286047000.3,N
1652380955.1,286047001.5,N
1652380975.9,286047002.5,N
1652380995.7,286047002.7,N
1652381015.5,286046999.7,N
1652381035.3,286047003.8,N
1652381055.2,286047001.9,N
1652381075.0,286047000.3,N
1652381075.9,286047000.3,N
1652381095.8,286047002.8,N
1652381115.6,286047000.6,N
1652381135.4,286047001.0,N
1652381155.2,286047002.2,N
1652381175.1,286046999.0,N
1652381176.0,286046999.0,N
1652381195.8,286046999.2,N
1652381215.7,286046996.6,N
1652381235.5,286046998.1,N
1652381255.3,286046998.6,N
1652381275.1,286047001.4,N
1652381295.9,286047003.0,N
1652381315.7,286047000.4,N
1652381335.5,286047001.8,N
1652381355.4,286047006.0,Y
1652381375.2,286047002.8,P
1652381395.1,286047000.0,N
1652381396.0,286047000.0,N
1652381415.8,286047002.4,N
1652381435.6,286047001.6,N
1652381455.5,286046999.7,N
1652381475.3,286047000.0,N
1652381495.1,286047002.7,N
1652381515.9,286047000.7,N
1652381535.7,286046998.5,N
1652381555.5,286046999.6,N
1652381575.4,286046995.2,Y
1652381595.2,286046997.7,P
1652381615.0,286046999.1,N
1652381615.9,286046999.1,N
1652381635.8,286046999.6,N
1652381655.6,286046997.7,N
1652381675.4,286046998.7,N
1652381695.3,286046999.1,N
1652381715.1,286046999.5,N
1652381716.0,286046999.5,N
1652381735.8,286046996.9,Y
1652381755.7,286047001.1,P
1652381775.5,286047000.5,N
1652381795.3,286046999.3,N
1652381815.2,286046998.1,N
1652381835.9,286046999.6,N
1652381855.7,286046998.6,N
1652381875.6,286047000.9,N
1652381895.4,286047000.0,N
1652381915.2,286046998.6,N
1652381935.1,286046998.6,N
1652381936.0,286046998.6,N
1652381955.8,286047000.9,N
1652381975.6,286047000.8,N
1652381995.5,286047001.0,N
